When you browse on this site, cookies collect data to enhance your experience and personalize the content and advertising you see.
Visit our Privacy Policy to learn more. By continuing to use the site, you agree to this use of cookies and data.

Hourly Weather Prutz

Today, 15 August, Saturday

Time Temperature Precipitation Wind Pressure Humidity
00:00 +11°C° 0 mm 1 mps 634 mmHg 91%
01:00 +11°C° 0 mm 1 mps 634 mmHg 91%
02:00 +10°C° 0 mm 1 mps 634 mmHg 91%
03:00 +9°C° 0 mm 0 mps 633 mmHg 91%
04:00 +9°C° 0 mm 0 mps 633 mmHg 90%
05:00 +10°C° 0 mm 0 mps 634 mmHg 87%
06:00 +12°C° 0 mm 0 mps 634 mmHg 83%
07:00 +13°C° 0 mm 0 mps 635 mmHg 80%
08:00 +15°C° 0 mm 0 mps 636 mmHg 72%
09:00 +19°C° 0 mm 1 mps 636 mmHg 65%
10:00 +21°C° 0 mm 1 mps 637 mmHg 57%
11:00 +22°C° 0.1 mm 1 mps 637 mmHg 54%
12:00 +23°C° 0.1 mm 1 mps 637 mmHg 52%
13:00 +23°C° 0.1 mm 1 mps 637 mmHg 49%
14:00 +23°C° 0.2 mm 2 mps 636 mmHg 52%
15:00 +23°C° 0.2 mm 2 mps 636 mmHg 55%
16:00 +21°C° 0.2 mm 2 mps 636 mmHg 58%
17:00 +19°C° 0.3 mm 2 mps 635 mmHg 69%
18:00 +19°C° 0.3 mm 1 mps 635 mmHg 80%
19:00 +16°C° 0.3 mm 1 mps 634 mmHg 91%
20:00 +15°C° 0.1 mm 1 mps 634 mmHg 92%
21:00 +12°C° 0.1 mm 0 mps 634 mmHg 93%
22:00 +11°C° 0.1 mm 0 mps 633 mmHg 95%
23:00 +11°C° 0 mm 0 mps 633 mmHg 94%

Tomorrow, 16 August, Sunday

Time Temperature Precipitation Wind Pressure Humidity
00:00 +11°C° 0 mm 0 mps 633 mmHg 94%
01:00 +11°C° 0 mm 1 mps 633 mmHg 93%
02:00 +11°C° 0 mm 1 mps 633 mmHg 92%
03:00 +11°C° 0 mm 1 mps 633 mmHg 91%
04:00 +11°C° 0 mm 1 mps 632 mmHg 91%
05:00 +13°C° 0 mm 1 mps 633 mmHg 87%
06:00 +14°C° 0 mm 1 mps 634 mmHg 84%
07:00 +16°C° 0 mm 1 mps 634 mmHg 81%
08:00 +18°C° 0.1 mm 1 mps 635 mmHg 73%
09:00 +20°C° 0.1 mm 1 mps 635 mmHg 65%
10:00 +22°C° 0.1 mm 1 mps 636 mmHg 58%
11:00 +22°C° 0.6 mm 1 mps 636 mmHg 57%
12:00 +23°C° 0.6 mm 1 mps 636 mmHg 56%
13:00 +23°C° 0.6 mm 1 mps 636 mmHg 55%
14:00 +23°C° 1.2 mm 1 mps 635 mmHg 58%
15:00 +22°C° 1.2 mm 1 mps 635 mmHg 61%
16:00 +22°C° 1.2 mm 1 mps 635 mmHg 64%
17:00 +20°C° 1.1 mm 1 mps 634 mmHg 73%
18:00 +18°C° 1.1 mm 1 mps 634 mmHg 82%
19:00 +16°C° 1.1 mm 1 mps 633 mmHg 91%
20:00 +15°C° 0.4 mm 1 mps 633 mmHg 91%
21:00 +15°C° 0.4 mm 1 mps 633 mmHg 91%
22:00 +14°C° 0.4 mm 1 mps 633 mmHg 91%
23:00 +14°C° 0.1 mm 1 mps 633 mmHg 91%

Day after tomorrow, 17 August, Monday

Time Temperature Precipitation Wind Pressure Humidity
00:00 +14°C° 0.1 mm 1 mps 632 mmHg 90%
01:00 +13°C° 0.1 mm 2 mps 632 mmHg 89%
02:00 +13°C° 0.2 mm 2 mps 632 mmHg 89%
03:00 +13°C° 0.2 mm 2 mps 632 mmHg 89%
04:00 +13°C° 0.2 mm 2 mps 632 mmHg 90%
05:00 +14°C° 0.1 mm 1 mps 632 mmHg 88%
06:00 +15°C° 0.1 mm 1 mps 633 mmHg 87%
07:00 +15°C° 0.1 mm 1 mps 633 mmHg 85%
08:00 +16°C° 0.4 mm 1 mps 633 mmHg 82%
09:00 +18°C° 0.4 mm 1 mps 634 mmHg 79%
10:00 +19°C° 0.4 mm 1 mps 634 mmHg 75%
11:00 +19°C° 1.4 mm 1 mps 634 mmHg 77%
12:00 +18°C° 1.4 mm 2 mps 634 mmHg 79%
13:00 +18°C° 1.4 mm 2 mps 634 mmHg 80%
14:00 +17°C° 1.3 mm 2 mps 633 mmHg 83%
15:00 +17°C° 1.3 mm 2 mps 633 mmHg 86%
16:00 +16°C° 1.3 mm 1 mps 633 mmHg 89%
17:00 +15°C° 0.8 mm 2 mps 633 mmHg 91%
18:00 +14°C° 0.8 mm 2 mps 633 mmHg 94%
19:00 +13°C° 0.8 mm 2 mps 633 mmHg 96%
20:00 +13°C° 0.5 mm 1 mps 633 mmHg 95%
21:00 +13°C° 0.5 mm 1 mps 633 mmHg 95%
22:00 +13°C° 0.5 mm 1 mps 633 mmHg 94%
23:00 +12°C° 0.1 mm 1 mps 633 mmHg 93%

18 August, Tuesday

Time Temperature Precipitation Wind Pressure Humidity
00:00 +11°C° 0.1 mm 0 mps 633 mmHg 91%
01:00 +11°C° 0.1 mm 0 mps 633 mmHg 90%
02:00 +11°C° 0 mm 0 mps 633 mmHg 90%
03:00 +11°C° 0 mm 0 mps 632 mmHg 90%
04:00 +10°C° 0 mm 0 mps 632 mmHg 90%
05:00 +11°C° 0 mm 0 mps 632 mmHg 87%
06:00 +12°C° 0 mm 0 mps 632 mmHg 84%
07:00 +12°C° 0 mm 0 mps 633 mmHg 81%
08:00 +14°C° 0 mm 0 mps 633 mmHg 76%
09:00 +16°C° 0 mm 0 mps 633 mmHg 70%
10:00 +17°C° 0 mm 0 mps 634 mmHg 65%
11:00 +19°C° 0.5 mm 1 mps 634 mmHg 65%
12:00 +20°C° 0.5 mm 1 mps 633 mmHg 65%
13:00 +20°C° 0.5 mm 1 mps 633 mmHg 65%
14:00 +19°C° 1.3 mm 1 mps 633 mmHg 73%
15:00 +16°C° 1.3 mm 1 mps 632 mmHg 81%
16:00 +15°C° 1.3 mm 1 mps 632 mmHg 89%
17:00 +15°C° 0.7 mm 1 mps 632 mmHg 91%
18:00 +13°C° 0.7 mm 0 mps 632 mmHg 92%
19:00 +13°C° 0.7 mm 0 mps 631 mmHg 93%
20:00 +12°C° 0.1 mm 0 mps 631 mmHg 94%
21:00 +11°C° 0.1 mm 0 mps 631 mmHg 94%
22:00 +11°C° 0.1 mm 0 mps 631 mmHg 95%
23:00 +11°C° 0.2 mm 0 mps 631 mmHg 94%

19 August, Wednesday

Time Temperature Precipitation Wind Pressure Humidity
00:00 +11°C° 0.2 mm 0 mps 631 mmHg 94%
01:00 +12°C° 0.2 mm 0 mps 631 mmHg 93%
02:00 +12°C° 1.4 mm 0 mps 631 mmHg 94%
03:00 +11°C° 1.4 mm 0 mps 631 mmHg 95%
04:00 +11°C° 1.4 mm 0 mps 631 mmHg 95%
05:00 +12°C° 1.5 mm 1 mps 631 mmHg 95%
06:00 +12°C° 1.5 mm 1 mps 631 mmHg 95%
07:00 +12°C° 1.5 mm 1 mps 631 mmHg 94%
08:00 +12°C° 0.5 mm 1 mps 631 mmHg 93%
09:00 +13°C° 0.5 mm 1 mps 632 mmHg 92%
10:00 +13°C° 0.5 mm 1 mps 632 mmHg 91%
11:00 +13°C° 0.4 mm 1 mps 632 mmHg 90%
12:00 +14°C° 0.4 mm 1 mps 632 mmHg 88%
13:00 +14°C° 0.4 mm 1 mps 632 mmHg 87%
14:00 +15°C° 0.2 mm 1 mps 632 mmHg 83%
15:00 +16°C° 0.2 mm 2 mps 633 mmHg 78%
16:00 +17°C° 0.2 mm 2 mps 633 mmHg 74%
17:00 +16°C° 0.2 mm 2 mps 633 mmHg 80%
18:00 +14°C° 0.2 mm 2 mps 632 mmHg 86%
19:00 +13°C° 0.2 mm 1 mps 632 mmHg 92%
20:00 +12°C° 0 mm 1 mps 632 mmHg 94%
21:00 +11°C° 0 mm 1 mps 632 mmHg 95%
22:00 +9°C° 0 mm 0 mps 632 mmHg 97%
23:00 +9°C° 0 mm 0 mps 632 mmHg 96%

20 August, Thursday

Time Temperature Precipitation Wind Pressure Humidity
00:00 +9°C° 0 mm 0 mps 632 mmHg 96%
01:00 +8°C° 0 mm 0 mps 632 mmHg 95%
02:00 +9°C° 0 mm 1 mps 632 mmHg 94%
03:00 +9°C° 0 mm 1 mps 632 mmHg 94%
04:00 +8°C° 0 mm 1 mps 632 mmHg 93%
05:00 +10°C° 0 mm 1 mps 632 mmHg 88%
06:00 +12°C° 0 mm 1 mps 633 mmHg 83%
07:00 +13°C° 0 mm 1 mps 634 mmHg 78%
08:00 +15°C° 0 mm 1 mps 634 mmHg 69%
09:00 +19°C° 0 mm 1 mps 635 mmHg 60%
10:00 +21°C° 0 mm 1 mps 636 mmHg 51%
11:00 +22°C° 0 mm 1 mps 636 mmHg 47%
12:00 +23°C° 0 mm 1 mps 637 mmHg 44%
13:00 +24°C° 0 mm 1 mps 637 mmHg 40%
14:00 +24°C° 0 mm 1 mps 637 mmHg 40%
15:00 +24°C° 0 mm 1 mps 636 mmHg 41%
16:00 +24°C° 0 mm 1 mps 636 mmHg 41%
17:00 +22°C° 0 mm 1 mps 636 mmHg 54%
18:00 +19°C° 0 mm 1 mps 635 mmHg 67%
19:00 +15°C° 0 mm 0 mps 634 mmHg 80%
20:00 +14°C° 0 mm 0 mps 634 mmHg 83%
21:00 +13°C° 0 mm 0 mps 634 mmHg 85%
22:00 +12°C° 0 mm 0 mps 634 mmHg 87%
23:00 +13°C° 0 mm 1 mps 634 mmHg 86%
Show more